Simultaneous Nadir Overpasses (SNOs) Predictions

Prediction of SNOs between METOP-B and NOAA-19 Satellite Orbit:

Table of predicted SNOs for the next 14.0 days since TLE Epoch: 11/11/2023
Index Date (METOP-B) Time (METOP-B) Lat,Lon (METOP-B) SZA (METOP-B ) Date (NOAA-19) Time (NOAA-19) Lat,Lon (NOAA-19) SZA (NOAA-19 ) Distance(km) Time Diff (sec)
1 11/21/2023 08:23:23 80.66, 83.12 101.90 11/21/2023 08:22:15 80.65, 83.03 101.86 1.83 68
2 11/21/2023 09:14:04 -80.67,-109.49 78.09 11/21/2023 09:13:09 -80.66,-109.48 78.11 0.29 55
3 11/21/2023 10:04:44 80.67, 57.96 101.94 11/21/2023 10:04:12 80.68, 58.12 101.94 2.97 32
4 11/21/2023 10:55:25 -80.68,-134.65 78.05 11/21/2023 10:55:07 -80.67,-134.74 78.07 1.69 18
5 11/21/2023 11:46:05 80.68, 32.79 101.98 11/21/2023 11:46:10 80.69, 32.85 101.99 1.13 5
6 11/21/2023 12:36:46 -80.69,-159.82 78.01 11/21/2023 12:37:04 -80.70,-159.66 77.99 3.07 18
7 11/21/2023 13:27:26 80.70, 7.62 102.02 11/21/2023 13:28:08 80.70, 7.58 102.03 0.76 42



Historial Predications of SNOs between METOP-B and NOAA-19
